Regional Weather Roundup
Issued by NWS Sioux Falls, SD

Home | Current Version | Previous Version | Graphics & Text | Print | Product List | Glossary Off
Versions: 1 2 3 4 5 6 7 8 9 10 11 12 13 14 15 16 17 18 19 20 21 22 23 24 25 26 27 28 29 30 31 32 33 34 35 36 37 38 39 40 41 42 43 44 45 46 47 48 49 50

000
ASUS43 KFSD 292110
RWRFSD

WEATHER ROUNDUP FOR SE SOUTH DAKOTA/SW MINNESOTA/NW IOWA
NATIONAL WEATHER SERVICE SIOUX FALLS SD
400 PM CDT SAT APR 29 2017

NOTE: "FAIR" INDICATES FEW OR NO CLOUDS BELOW 12,000 FEET WITH NO
SIGNIFICANT WEATHER AND OR OBSTRUCTIONS TO VISIBILITY.


SDZ038>040-050-052>070-292200-
SOUTHEAST SOUTH DAKOTA

CITY           SKY/WX    TMP DP  RH WIND       PRES   REMARKS
BROOKINGS      CLOUDY    53  22  29 NE18G26   30.22F
CHAMBERLAIN    CLOUDY    58  21  24 N13G21    30.20F
HURON          CLOUDY    57  22  25 NE14      30.23F
MADISON        FAIR      54  19  26 E18G32    30.20F
MITCHELL       CLOUDY    58  20  22 E15G29    30.20F
SIOUX FALLS    CLOUDY    54  23  30 E23G31    30.15F
WINNER         FAIR      56  21  25 NE18G24   30.19F
YANKTON        PTSUNNY   52  27  37 NE24      30.12F
$$

MNZ071-072-080-081-089-090-097-098-292200-
SOUTHWEST MINNESOTA

CITY           SKY/WX    TMP DP  RH WIND       PRES   REMARKS
FAIRMONT       CLOUDY    50  26  39 NE17      30.18F
JACKSON        CLOUDY    48  25  40 NE22      30.19F
LUVERNE        CLOUDY    52  19  28 NE18G25   30.17F
MARSHALL       PTSUNNY   54  24  31 NE15      30.24F
MONTEVIDEO     PTSUNNY   57  23  26 E12G17    30.28F
PIPESTONE      CLOUDY    54  14  20 E15G25    30.19F
REDWOOD FALLS  CLOUDY    54  20  26 NE12G22   30.26F
TRACY          CLOUDY    54  27  35 NE22G29   30.22F
WINDOM         CLOUDY    52  21  30 NE16      30.20F
WORTHINGTON    CLOUDY    50  22  33 NE23      30.18F
$$

IAZ001>003-012>014-020>022-031-032-NEZ013-014-SDZ071-292200-
NORTHWEST IOWA

CITY           SKY/WX    TMP DP  RH WIND       PRES   REMARKS
CHEROKEE       CLOUDY    48  28  45 NE18G29   30.08F
DENISON        CLOUDY    45  37  76 NE23G37   30.01F
ESTHERVILLE    CLOUDY    48  29  47 NE23      30.15F
LE MARS        CLOUDY    50  30  46 NE23G32   30.08F
ORANGE CITY    PTSUNNY   50  27  40 E17G29    30.09F
SHELDON        CLOUDY    50  25  37 NE30G36   30.09F
SIOUX CITY     CLOUDY    52  32  46 NE16G31   30.08F
SPENCER        CLOUDY    49  28  44 NE24G33   30.13F
STORM LAKE       N/A     48  30  49 NE29G36   30.07F
$$

ABBREVIATIONS USED IN REMARKS
   TC - TEMPERATURE IN CELSIUS
  WCI - WIND CHILL INDEX
   HX - HEAT INDEX
  VSB - VISIBILITY





USA.gov is the U.S. government's official web portal to all federal, state and local government web resources and services.